EW8484 Weather Reports


Display with metric or nautical units.
time (UTC)temp
F
wind
direction
speed
MPH
gust
MPH
rain 1hr
in
rain 24hr
in
rain mn
in
humidity
%
barometer
mb
20260906203026 68 36 1.0 5.0 0.00 0.47 0.30 30 1016.6
20260906202526 68 320 1.0 3.0 0.00 0.47 0.30 31 1016.5
20260906202026 68 45 2.0 4.0 0.00 0.47 0.30 28 1016.4
20260906201546 68 8 2.0 5.0 0.00 0.47 0.30 28 1016.6
20260906201026 69 340 2.0 5.0 0.00 0.47 0.30 29 1016.5
20260906200546 69 359 2.0 4.0 0.00 0.47 0.30 29 1016.5
20260906200026 69 8 1.0 3.0 0.00 0.47 0.30 30 1016.6
20260906195526 68 47 1.0 3.0 0.00 0.47 0.30 32 1016.5
20260906195026 68 0.0 1.0 0.00 0.47 0.30 34 1016.6
20260906194525 68 36 1.0 3.0 0.00 0.47 0.30 32 1016.7
20260906194026 68 62 1.0 5.0 0.00 0.47 0.30 30 1016.8
20260906193526 68 0.0 0.0 0.00 0.47 0.30 30 1016.8
20260906193026 67 0.0 0.0 0.00 0.47 0.30 33 1016.8
20260906192526 67 0.0 0.0 0.00 0.47 0.30 34 1016.9
20260906192026 67 0.0 2.0 0.00 0.47 0.30 34 1016.9
20260906191526 68 35 1.0 3.0 0.00 0.47 0.30 33 1017.0
20260906191046 68 0.0 0.0 0.00 0.47 0.30 35 1017.1
20260906190536 68 0.0 0.0 0.01 0.47 0.30 37 1017.0
20260906190026 67 88 2.0 7.0 0.02 0.47 0.30 32 1017.0
20260906185525 67 11 2.0 8.0 0.02 0.47 0.30 33 1017.0
20260906185025 67 357 2.0 6.0 0.02 0.47 0.30 32 1017.0
20260906184526 67 43 2.0 5.0 0.02 0.47 0.30 35 1017.2
20260906184025 66 33 1.0 3.0 0.02 0.47 0.30 38 1017.0
20260906183525 66 76 1.0 3.0 0.02 0.47 0.30 39 1017.1
20260906183025 65 41 1.0 3.0 0.02 0.47 0.30 39 1017.1
20260906182526 65 304 1.0 4.0 0.02 0.47 0.30 40 1017.3
20260906182025 64 285 1.0 6.0 0.02 0.47 0.30 42 1017.2
20260906181526 64 0.0 1.0 0.02 0.47 0.30 41 1017.3
20260906181025 64 164 1.0 2.0 0.02 0.47 0.30 38 1017.3
20260906180525 65 100 1.0 3.0 0.01 0.46 0.29 39 1017.4
20260906180025 65 0.0 0.0 0.00 0.45 0.28 39 1017.3
20260906175525 65 139 1.0 2.0 0.00 0.45 0.28 38 1017.3
20260906175025 65 0.0 2.0 0.00 0.45 0.28 38 1017.2
20260906174545 65 120 1.0 4.0 0.00 0.45 0.28 39 1017.3
20260906174045 64 0.0 2.0 0.00 0.45 0.28 40 1017.4
20260906173525 64 0.0 1.0 0.00 0.45 0.28 39 1017.4
20260906173025 64 64 1.0 3.0 0.00 0.45 0.28 39 1017.4
20260906172605 64 16 1.0 3.0 0.00 0.45 0.28 39 1017.4
20260906172025 64 0.0 2.0 0.00 0.45 0.28 42 1017.3
20260906171545 64 147 1.0 3.0 0.00 0.45 0.28 39 1017.3
20260906171025 64 0.0 2.0 0.00 0.45 0.28 39 1017.6
20260906170525 64 31 1.0 3.0 0.00 0.45 0.28 37 1017.6
20260906170025 64 343 1.0 4.0 0.00 0.45 0.28 38 1017.6
20260906165525 64 9 2.0 5.0 0.01 0.45 0.28 38 1017.5
20260906165025 64 9 1.0 5.0 0.01 0.45 0.28 40 1017.6
20260906164525 64 0.0 0.0 0.01 0.45 0.28 42 1017.7
20260906164025 63 0.0 0.0 0.01 0.45 0.28 43 1017.9
20260906163525 64 0.0 0.0 0.01 0.45 0.28 43 1017.8
20260906163045 63 0.0 0.0 0.01 0.45 0.28 43 1017.9
20260906162525 63 0.0 0.0 0.01 0.45 0.28 43 1017.9
20260906162025 63 0.0 0.0 0.01 0.45 0.28 43 1017.9
20260906161525 63 0.0 0.0 0.01 0.45 0.28 44 1017.9
20260906161025 63 0.0 0.0 0.01 0.45 0.28 43 1018.0
20260906160525 62 0.0 0.0 0.01 0.45 0.28 43 1017.9
20260906160025 62 47 1.0 4.0 0.01 0.45 0.28 43 1018.0
20260906155525 62 0.0 2.0 0.00 0.44 0.27 44 1018.1
20260906155025 62 0.0 0.0 0.00 0.44 0.27 44 1018.1
20260906154525 62 343 1.0 2.0 0.00 0.44 0.27 44 1018.1
20260906154025 62 136 1.0 2.0 0.00 0.44 0.27 44 1018.1
20260906153525 62 135 1.0 3.0 0.00 0.44 0.27 45 1018.0
20260906153027 61 0.0 2.0 0.00 0.44 0.27 45 1018.1
20260906152525 61 0.0 2.0 0.00 0.44 0.27 45 1018.2
20260906152027 61 124 1.0 2.0 0.00 0.44 0.27 45 1018.3
20260906151527 61 128 1.0 3.0 0.00 0.44 0.27 45 1018.3
20260906151027 61 128 1.0 2.0 0.00 0.44 0.27 45 1018.3
20260906150527 60 143 1.0 2.0 0.00 0.44 0.27 45 1018.3
20260906150027 60 162 2.0 4.0 0.00 0.44 0.27 45 1018.4
20260906145527 60 162 2.0 5.0 0.00 0.44 0.27 45 1018.4
20260906145127 60 134 1.0 3.0 0.00 0.44 0.27 46 1018.3
20260906144527 59 0.0 4.0 0.00 0.44 0.27 46 1018.0
20260906144027 59 30 2.0 6.0 0.01 0.44 0.27 46 1018.2
20260906143527 60 0.0 0.0 0.01 0.44 0.27 46 1018.2
20260906143027 59 0.0 0.0 0.03 0.44 0.27 46 1018.1
20260906142527 59 0.0 0.0 0.03 0.44 0.27 46 1018.1
20260906142027 59 0.0 0.0 0.03 0.44 0.27 46 1018.2
20260906141527 59 0.0 0.0 0.03 0.44 0.27 46 1018.2
20260906141027 59 0.0 0.0 0.03 0.44 0.27 46 1018.2
20260906140527 59 0.0 0.0 0.04 0.44 0.27 46 1018.1
20260906140047 59 0.0 0.0 0.04 0.44 0.27 46 1018.2
20260906135527 58 0.0 0.0 0.05 0.44 0.27 46 1018.1
20260906135027 58 0.0 0.0 0.05 0.44 0.27 46 1018.1
20260906134527 58 0.0 0.0 0.05 0.44 0.27 46 1018.1
20260906134047 58 0.0 0.0 0.05 0.43 0.26 46 1018.2
20260906133527 58 0.0 0.0 0.05 0.43 0.26 46 1018.1
20260906133027 58 0.0 0.0 0.05 0.41 0.24 46 1018.1
20260906132547 58 0.0 0.0 0.09 0.41 0.24 46 1018.2
20260906132027 58 0.0 0.0 0.13 0.41 0.24 46 1018.0
20260906131527 58 0.0 0.0 0.15 0.41 0.24 46 1018.0
20260906131047 58 0.0 0.0 0.16 0.41 0.24 46 1017.9
20260906130527 58 0.0 0.0 0.16 0.40 0.23 46 1017.9
20260906130047 58 0.0 0.0 0.16 0.40 0.23 46 1018.0
20260906125527 58 0.0 0.0 0.16 0.39 0.22 46 1018.0
20260906125027 58 0.0 2.0 0.17 0.39 0.22 46 1018.0
20260906124547 58 26 1.0 2.0 0.17 0.39 0.22 46 1017.9
20260906124027 58 85 1.0 3.0 0.17 0.38 0.21 46 1017.7
20260906123547 58 0.0 2.0 0.17 0.38 0.21 46 1017.7
20260906123027 58 0.0 1.0 0.15 0.36 0.19 46 1017.6
20260906122527 58 0.0 1.0 0.11 0.32 0.15 46 1017.6
20260906122027 58 0.0 2.0 0.07 0.28 0.11 46 1017.7
20260906121546 59 0.0 3.0 0.05 0.26 0.09 46 1017.6
20260906121026 59 0.0 1.0 0.04 0.25 0.08 46 1017.6
20260906120547 59 0.0 0.0 0.03 0.24 0.07 46 1017.5
20260906120027 59 0.0 0.0 0.03 0.24 0.07 46 1017.5
20260906115547 59 0.0 0.0 0.02 0.23 0.06 46 1017.5
20260906115047 59 0.0 0.0 0.02 0.22 0.05 46 1017.5
20260906114547 59 0.0 0.0 0.02 0.22 0.05 46 1017.4
20260906114027 59 0.0 1.0 0.01 0.21 0.04 46 1017.3
20260906113527 59 0.0 2.0 0.01 0.21 0.04 46 1017.3
20260906113047 59 0.0 2.0 0.01 0.21 0.04 46 1017.3
20260906112527 59 0.0 2.0 0.01 0.21 0.04 46 1017.1
20260906112027 59 14 1.0 2.0 0.01 0.21 0.04 46 1017.0
20260906111527 59 0.0 2.0 0.01 0.21 0.04 46 1017.0
20260906111027 59 0.0 0.0 0.01 0.21 0.04 46 1016.9
20260906110547 59 0.0 0.0 0.01 0.21 0.04 46 1016.6
20260906110046 59 0.0 0.0 0.01 0.21 0.04 46 1016.7
20260906105527 59 0.0 1.0 0.01 0.21 0.04 46 1016.6
20260906105027 59 0.0 1.0 0.00 0.20 0.03 45 1016.5
20260906104527 59 0.0 1.0 0.00 0.20 0.03 46 1016.6
20260906104026 59 0.0 0.0 0.00 0.20 0.03 46 1016.4
20260906103526 59 0.0 0.0 0.00 0.20 0.03 46 1016.4
20260906103027 59 0.0 0.0 0.00 0.20 0.03 46 1016.3
20260906102527 59 0.0 2.0 0.00 0.20 0.03 45 1016.1
20260906102026 59 0.0 2.0 0.00 0.20 0.03 46 1016.0
20260906101526 59 0.0 0.0 0.00 0.20 0.03 46 1016.0
20260906101027 59 0.0 0.0 0.00 0.20 0.03 46 1016.0
20260906100526 59 0.0 0.0 0.00 0.20 0.03 46 1015.9
20260906100027 59 0.0 1.0 0.00 0.20 0.03 46 1016.0
20260906095526 59 0.0 1.0 0.00 0.20 0.03 46 1015.9
20260906095026 59 0.0 0.0 0.00 0.20 0.03 45 1015.8
20260906094526 59 0.0 0.0 0.00 0.20 0.03 46 1015.8
20260906094026 59 0.0 1.0 0.00 0.20 0.03 45 1015.8
20260906093526 59 0.0 1.0 0.01 0.20 0.03 45 1015.7
20260906093026 59 0.0 2.0 0.01 0.20 0.03 45 1015.8
20260906092526 59 0.0 2.0 0.01 0.20 0.03 45 1015.7
20260906092026 59 14 1.0 3.0 0.01 0.20 0.03 45 1015.6
20260906091526 59 0.0 1.0 0.01 0.20 0.03 45 1015.6
20260906091026 59 0.0 0.0 0.01 0.20 0.03 45 1015.5
20260906090526 59 0.0 1.0 0.01 0.20 0.03 45 1015.5
20260906090026 59 0.0 2.0 0.01 0.20 0.03 45 1015.5
20260906085526 59 15 1.0 2.0 0.01 0.20 0.03 45 1015.5
20260906085026 59 0.0 1.0 0.01 0.20 0.03 45 1015.2
20260906084526 59 0.0 1.0 0.01 0.20 0.03 45 1015.3
20260906084026 59 0.0 2.0 0.01 0.20 0.03 46 1015.6
20260906083526 59 14 1.0 3.0 0.00 0.19 0.02 46 1015.6
20260906083026 59 16 1.0 4.0 0.00 0.19 0.02 46 1015.6
20260906082526 59 354 1.0 5.0 0.00 0.19 0.02 45 1015.7
20260906082026 59 354 1.0 3.0 0.00 0.19 0.02 46 1015.6
20260906081526 59 0 1.0 2.0 0.00 0.19 0.02 46 1015.6
20260906081026 59 1 1.0 3.0 0.00 0.19 0.02 46 1015.5
20260906080526 59 0.0 0.0 0.00 0.19 0.02 46 1015.4
20260906080026 59 0.0 0.0 0.00 0.19 0.02 46 1015.4
20260906075526 59 0.0 0.0 0.00 0.19 0.02 46 1015.6
20260906075026 59 0.0 0.0 0.00 0.19 0.02 46 1015.5
20260906074526 59 0.0 0.0 0.00 0.19 0.02 46 1015.5
20260906074026 59 0.0 0.0 0.00 0.19 0.02 46 1015.5
20260906073526 59 0.0 0.0 0.00 0.19 0.02 46 1015.5
20260906073026 59 0.0 0.0 0.00 0.19 0.02 45 1015.6
20260906072546 59 0.0 0.0 0.00 0.19 0.02 45 1015.7
20260906072046 59 0.0 0.0 0.00 0.19 0.02 45 1015.6
20260906071526 59 0.0 0.0 0.01 0.19 0.02 45 1015.4
20260906071026 59 0.0 0.0 0.01 0.19 0.02 45 1015.4
20260906070526 59 0.0 0.0 0.01 0.19 0.02 45 1015.4
20260906070026 59 0.0 0.0 0.01 0.19 0.02 45 1015.4
20260906065526 59 0.0 0.0 0.01 0.19 0.02 45 1015.4
20260906065026 59 0.0 0.0 0.01 0.19 0.02 45 1015.5
20260906064526 59 0.0 0.0 0.01 0.19 0.02 45 1015.6
20260906064026 59 0.0 0.0 0.01 0.19 0.02 45 1015.5
20260906063546 59 0.0 0.0 0.01 0.19 0.02 45 1015.5
20260906063026 60 0.0 0.0 0.01 0.19 0.02 45 1015.6
20260906062526 60 0.0 0.0 0.01 0.19 0.02 45 1015.5
20260906062046 60 0.0 0.0 0.01 0.19 0.02 45 1015.5
20260906061526 60 0.0 0.0 0.00 0.18 0.01 45 1015.8
20260906061026 60 0.0 0.0 0.00 0.18 0.01 45 1015.7
20260906060526 60 0.0 0.0 0.00 0.18 0.01 45 1015.7
20260906060026 60 0.0 0.0 0.00 0.18 0.01 45 1015.7
20260906055526 60 0.0 0.0 0.00 0.18 0.01 45 1015.8
20260906055026 60 0.0 0.0 0.00 0.18 0.01 45 1015.8
20260906054526 60 0.0 0.0 0.00 0.18 0.01 45 1015.8
20260906054026 60 0.0 0.0 0.00 0.18 0.01 45 1015.7
20260906053526 60 0.0 0.0 0.00 0.18 0.01 45 1015.7
20260906053026 60 0.0 0.0 0.00 0.18 0.01 45 1015.6
20260906052546 60 0.0 0.0 0.00 0.18 0.01 45 1015.7
20260906052026 60 0.0 0.0 0.00 0.18 0.01 45 1015.7
20260906051526 60 0.0 0.0 0.01 0.18 0.01 45 1015.7
20260906051026 60 0.0 0.0 0.01 0.18 0.01 45 1015.6
20260906050526 60 0.0 0.0 0.01 0.18 0.01 45 1015.6
20260906050026 60 0.0 0.0 0.01 0.18 0.01 45 1015.6
20260906045546 60 0.0 0.0 0.01 0.18 0.01 45 1015.5
20260906045026 60 0.0 0.0 0.01 0.18 0.01 45 1015.4
20260906044526 60 0.0 0.0 0.01 0.18 0.01 45 1015.5
20260906044026 60 0.0 0.0 0.01 0.18 0.01 45 1015.5
20260906043526 60 0.0 0.0 0.01 0.18 0.01 45 1015.4
20260906043026 60 0.0 0.0 0.01 0.18 0.01 45 1015.3
20260906042526 60 0.0 0.0 0.01 0.18 0.01 45 1015.3
20260906042026 60 0.0 0.0 0.01 0.18 0.01 45 1015.4
20260906041526 60 0.0 0.0 0.00 0.17 0.00 45 1015.4
20260906041026 60 0.0 0.0 0.00 0.17 0.00 45 1015.5
20260906040546 60 0.0 0.0 0.00 0.17 0.00 45 1015.5
20260906040046 60 0.0 0.0 0.00 0.17 0.17 45 1015.5
20260906035526 60 0.0 0.0 0.00 0.17 0.17 45 1015.5
20260906035026 60 0.0 0.0 0.00 0.17 0.17 45 1015.5
20260906034526 60 0.0 0.0 0.00 0.17 0.17 45 1015.4
20260906034026 60 0.0 0.0 0.00 0.17 0.17 45 1015.3
20260906033526 60 0.0 0.0 0.00 0.17 0.17 45 1015.3
20260906033026 60 0.0 0.0 0.00 0.17 0.17 45 1015.4
20260906032526 60 0.0 0.0 0.00 0.17 0.17 44 1015.3
20260906032026 60 0.0 0.0 0.00 0.17 0.17 44 1015.2
20260906031606 60 0.0 0.0 0.00 0.17 0.17 45 1015.2
20260906031026 60 0.0 0.0 0.00 0.17 0.17 45 1015.1
20260906030526 61 0.0 0.0 0.00 0.17 0.17 44 1015.1
20260906030026 61 0.0 0.0 0.00 0.17 0.17 45 1014.9
20260906025526 61 0.0 0.0 0.00 0.17 0.17 44 1015.0
20260906025026 61 0.0 0.0 0.00 0.17 0.17 44 1015.2
20260906024526 61 0.0 0.0 0.01 0.17 0.17 44 1015.1
20260906024026 61 0.0 0.0 0.01 0.17 0.17 44 1015.1
20260906023546 61 0.0 0.0 0.01 0.17 0.17 44 1015.3
20260906023026 61 0.0 0.0 0.01 0.17 0.17 44 1015.2
20260906022526 61 0.0 0.0 0.01 0.17 0.17 44 1015.3
20260906022026 61 0.0 0.0 0.01 0.17 0.17 44 1015.2
20260906021546 61 0.0 0.0 0.01 0.17 0.17 44 1015.1
20260906021026 61 0.0 0.0 0.01 0.17 0.17 44 1015.1
20260906020526 62 0.0 0.0 0.01 0.17 0.17 44 1015.2
20260906020026 62 0.0 1.0 0.01 0.17 0.17 44 1015.1
20260906015526 62 65 1.0 3.0 0.01 0.17 0.17 44 1015.0
20260906015026 62 145 1.0 2.0 0.01 0.17 0.17 44 1015.0
20260906014526 62 0.0 2.0 0.00 0.16 0.16 44 1014.9
20260906014046 63 0.0 3.0 0.00 0.16 0.16 44 1014.9
20260906013526 63 26 1.0 3.0 0.00 0.16 0.16 44 1015.1
20260906013026 63 357 1.0 4.0 0.00 0.16 0.16 44 1015.1
20260906012526 63 0.0 0.0 0.00 0.16 0.16 44 1014.8
20260906012044 63 0.0 0.0 0.00 0.16 0.16 44 1014.7
20260906011525 63 0.0 1.0 0.00 0.16 0.16 44 1014.7
20260906011025 63 125 1.0 3.0 0.00 0.16 0.16 44 1014.8
20260906010525 64 155 2.0 7.0 0.01 0.16 0.16 44 1014.7
20260906010106 64 123 1.0 5.0 0.01 0.16 0.16 44 1014.7
20260906005526 64 0.0 0.0 0.01 0.16 0.16 44 1014.6
20260906005045 64 0.0 0.0 0.01 0.16 0.16 44 1014.6
20260906004526 64 0.0 0.0 0.01 0.16 0.16 44 1014.4
20260906004025 64 0.0 0.0 0.01 0.16 0.16 44 1014.4
20260906003526 64 0.0 0.0 0.01 0.16 0.16 44 1014.3
20260906003026 64 0.0 0.0 0.01 0.16 0.16 44 1014.3
20260906002526 65 0.0 0.0 0.01 0.16 0.16 43 1014.2
20260906002045 65 0.0 0.0 0.01 0.16 0.16 44 1014.1
20260906001526 65 0.0 0.0 0.01 0.16 0.16 44 1014.1
20260906001025 65 0.0 1.0 0.01 0.16 0.16 43 1014.2
20260906000526 65 0.0 2.0 0.00 0.15 0.15 43 1014.2
20260906000026 65 0.0 2.0 0.00 0.15 0.15 43 1014.0
20260905235525 65 0.0 0.0 0.00 0.15 0.15 43 1013.9
20260905235025 65 0.0 0.0 0.00 0.15 0.15 43 1013.7
20260905234526 65 0.0 0.0 0.00 0.15 0.15 43 1013.6
20260905234026 65 0.0 0.0 0.00 0.15 0.15 43 1013.5
20260905233525 65 0.0 0.0 0.00 0.15 0.15 43 1013.4
20260905233026 65 0.0 0.0 0.00 0.15 0.15 43 1013.5
20260905232525 65 0.0 0.0 0.00 0.15 0.15 43 1013.4
20260905232046 65 0.0 0.0 0.00 0.15 0.15 43 1013.4
20260905231525 66 0.0 0.0 0.00 0.15 0.15 42 1013.3
20260905231025 66 0.0 0.0 0.00 0.15 0.15 42 1013.3
20260905230706 66 0.0 0.0 0.00 0.15 0.15 42 1013.2
20260905230026 66 0.0 0.0 0.00 0.15 0.15 42 1013.2
20260905225525 66 0.0 0.0 0.00 0.15 0.15 41 1013.2
20260905225025 66 0.0 0.0 0.00 0.15 0.15 41 1013.1
20260905224525 66 0.0 0.0 0.00 0.15 0.15 40 1013.1
20260905224025 66 0.0 0.0 0.00 0.15 0.15 40 1013.1
20260905223525 66 0.0 0.0 0.00 0.15 0.15 40 1013.1
20260905223026 67 0.0 0.0 0.00 0.15 0.15 40 1013.1
20260905222545 67 0.0 0.0 0.00 0.15 0.15 39 1013.0
20260905222030 67 0.0 0.0 0.00 0.15 0.15 40 1013.1
20260905221525 67 0.0 0.0 0.00 0.15 0.15 40 1013.0
20260905221045 67 0.0 0.0 0.01 0.15 0.15 39 1012.8
20260905220525 67 0.0 0.0 0.01 0.15 0.15 39 1012.8
20260905220025 68 0.0 0.0 0.03 0.15 0.15 39 1012.9
20260905215545 68 0.0 0.0 0.11 0.15 0.15 39 1012.8
20260905215045 68 0.0 1.0 0.15 0.15 0.15 40 1012.7
20260905214525 68 0.0 2.0 0.15 0.15 0.15 40 1012.7
20260905214025 68 0.0 1.0 0.15 0.15 0.15 41 1012.8
20260905213525 68 0.0 1.0 0.15 0.15 0.15 42 1012.8
20260905213025 68 0.0 0.0 0.15 0.15 0.15 43 1012.7
20260905212525 68 0.0 0.0 0.15 0.15 0.15 44 1012.6
20260905212025 68 0.0 3.0 0.15 0.15 0.15 46 1012.6
20260905211525 68 0.0 2.0 0.15 0.15 0.15 46 1012.6
20260905211025 69 0.0 2.0 0.14 0.14 0.14 46 1012.5
20260905210525 69 12 1.0 5.0 0.14 0.14 0.14 45 1012.5
20260905210025 70 355 1.0 3.0 0.12 0.12 0.12 44 1012.4
20260905205525 71 107 1.0 2.0 0.04 0.04 0.04 41 1012.4
20260905205025 72 0.0 2.0 0.00 0.00 0.00 40 1012.1
20260905204525 72 0.0 2.0 0.00 0.00 0.00 39 1012.1
20260905204025 72 0.0 2.0 0.00 0.00 0.00 38 1012.0
20260905203525 72 0.0 2.0 0.00 0.00 0.00 37 1011.9